Location: Tel Aviv
(32.0670°N, 34.7670°E)
Time: 06:44:47
(UTC+02:00)

Vanguard 1 Rocket - Pass Details

Date: 14 December 2023
Orbit: 654 x 4218 km, 34.3° (Epoch: 24 February)

Event Time Altitude Azimuth Distance (km) Brightness Sun altitude
Exits shadow 05:47:22 - 278° (W) 7,361 11.4 -9.7°
Reaches altitude 10° 05:48:22 10° 278° (W) 7,153 11.3 -9.5°
Maximum altitude 06:11:07 86° 10° (N) 2,678 9.8 -5.0°
Drops below altitude 10° 06:22:42 10° 99° (E) 4,002 12.3 -2.8°
Sets 06:25:08 0° 100° (E) 4,669 12.9 -2.4°
